Weather in Uvarovskoye

Russia / Stavropol Krai     43°48′51″N   44°26′28″E
temp.,
°C
wind,
m/s
gust,
m/s
humid.,
%
clouds,
%
prec.,
mm/h
press.,
hPa
HPBL,
m
20 april, tue
tue2000:00+16e367466 0.0 1014167
03:00+13e366980 0.0 1013102
06:00+12e3671100 0.0 1010142
09:00+18ese6860100 0.0 1008395
12:00+22e6752100 0.0 1005637
15:00+25ne554887 0.0 1004679
18:00+21e476338 0.0 1004146
21:00+18nw61275100 0.0 1008364
21 april, wed
wed2100:00+16nw4974100 0.1 1013463
03:00+15w3563100 0.1 1016266
06:00+14nw3471100 0.0 1017245
09:00+14nnw4564100 0.0 1019562
12:00+17n4451100 0.0 10181092
15:00+17n4452100 0.0 10181357
18:00+15nne3564100 0.0 1020174
21:00+14nne2465100 0.0 1021125
22 april, thu
thu2200:00+13ne2266100 0.0 102147
03:00+12ene2368100 0.0 102191
06:00+12nne2470100 0.0 1021130
09:00+11nne4684100 0.1 1024370
12:00+12e2280100 0.0 1024416
15:00+13ene2276100 0.1 1023723
18:00+13se1274100 0.0 1023247
21:00+12se2277100 0.1 102348
23 april, fri
fri2300:00+10sw1196100 6.2 102383
03:00+10sw2396100 11.3 1023131
06:00+10w2394100 1.9 1024190
09:00+10wsw3594100 5.4 1025234
12:00+12sw3383100 1.9 1025347
15:00+15s226299 2.0 1023910
18:00+15ene116989 0.0 102311
21:00+11se22785 0.0 102310
24 april, sat
sat2400:00+10ssw11830 0.0 102210
03:00+9ssw1184100 0.0 102210
06:00+9ese118280 0.0 102210
09:00+16ese465961 0.0 1020617
12:00+20e564774 0.0 10181269
15:00+21e56426 0.0 10171480
18:00+17e51060100 0.0 1016310
21:00+12e48746 0.0 1017165